Time,TemperatureF,DewpointF,PressureIn,WindDirection,WindDirectionDegrees,WindSpeedMPH,WindSpeedGustMPH,Humidity,HourlyPrecipIn,Conditions,Clouds,dailyrainin,SolarRadiationWatts/m^2,SoftwareType,DateUTC
2013-07-25 00:00:00,71.3,62.6,29.97,NW,311,8.0,10.0,74,0.01,,---,0.01,0.00,VWS V14.01,2013-07-24 22:00:00,
2013-07-25 00:10:00,70.9,63.0,29.97,WNW,288,5.0,7.0,76,0.02,,---,0.01,0.00,VWS V14.01,2013-07-24 22:10:00,
2013-07-25 00:15:00,70.4,63.2,29.98,WNW,300,3.0,6.0,78,0.02,,---,0.02,0.00,VWS V14.01,2013-07-24 22:15:00,
2013-07-25 00:20:00,69.8,63.4,29.98,NNW,342,3.0,11.0,80,0.06,,---,0.05,0.00,VWS V14.01,2013-07-24 22:20:00,
2013-07-25 00:30:00,69.0,63.6,29.97,NNE,22,6.0,10.0,83,0.06,,---,0.05,0.00,VWS V14.01,2013-07-24 22:30:00,
2013-07-25 00:40:00,68.6,63.6,29.97,West,264,0.0,4.0,84,0.05,,---,0.05,0.00,VWS V14.01,2013-07-24 22:40:00,
2013-07-25 00:45:00,68.6,63.9,29.98,WSW,248,0.0,2.0,85,0.05,,---,0.05,0.00,VWS V14.01,2013-07-24 22:45:00,
2013-07-25 00:50:00,68.7,64.0,29.98,WSW,248,0.0,5.0,85,0.06,,---,0.06,0.00,VWS V14.01,2013-07-24 22:50:00,
2013-07-25 00:55:00,68.8,64.8,29.98,SW,217,0.0,0.0,87,0.07,,---,0.07,0.00,VWS V14.01,2013-07-24 22:55:00,
2013-07-25 01:00:00,68.6,64.2,29.99,WNW,284,0.0,5.0,86,0.08,,---,0.08,0.00,VWS V14.01,2013-07-24 23:00:00,
2013-07-25 01:10:00,68.4,64.4,29.99,WNW,284,0.0,0.0,87,0.10,,---,0.10,0.00,VWS V14.01,2013-07-24 23:10:00,
2013-07-25 01:20:00,68.2,64.5,29.98,WNW,286,0.0,0.0,88,0.10,,---,0.12,0.00,VWS V14.01,2013-07-24 23:20:00,
2013-07-25 01:25:00,68.0,64.3,29.98,WNW,296,3.0,4.0,88,0.07,,---,0.12,0.00,VWS V14.01,2013-07-24 23:25:00,
2013-07-25 01:30:00,67.9,64.5,29.97,ENE,78,0.0,4.0,89,0.07,,---,0.12,0.00,VWS V14.01,2013-07-24 23:30:00,
2013-07-25 01:40:00,67.8,64.8,29.97,East,84,0.0,2.0,90,0.07,,---,0.12,0.00,VWS V14.01,2013-07-24 23:40:00,
2013-07-25 01:45:00,67.7,64.7,29.98,East,84,1.0,1.0,90,0.07,,---,0.12,0.00,VWS V14.01,2013-07-24 23:45:00,
2013-07-25 01:55:00,67.7,64.7,29.98,SW,227,8.0,10.0,90,0.06,,---,0.12,0.00,VWS V14.01,2013-07-24 23:55:00,
2013-07-25 02:00:00,67.6,64.6,29.99,WSW,249,0.0,0.0,90,0.05,,---,0.12,0.00,VWS V14.01,2013-07-25 00:00:00,
2013-07-25 02:10:00,67.6,64.6,29.99,WSW,250,4.0,5.0,90,0.02,,---,0.12,0.00,VWS V14.01,2013-07-25 00:10:00,
2013-07-25 02:15:00,67.5,64.5,29.99,West,259,0.0,2.0,90,0.02,,---,0.12,0.00,VWS V14.01,2013-07-25 00:15:00,
2013-07-25 02:20:00,67.4,64.4,29.99,West,259,0.0,2.0,90,0.01,,---,0.13,0.00,VWS V14.01,2013-07-25 00:20:00,
2013-07-25 02:30:00,67.4,64.4,29.99,West,259,0.0,3.0,90,0.01,,---,0.13,0.00,VWS V14.01,2013-07-25 00:30:00,
2013-07-25 02:40:00,67.3,64.3,29.99,West,259,0.0,0.0,90,0.02,,---,0.13,0.00,VWS V14.01,2013-07-25 00:40:00,
2013-07-25 02:45:00,67.4,64.4,29.99,West,259,0.0,0.0,90,0.02,,---,0.13,0.00,VWS V14.01,2013-07-25 00:45:00,
2013-07-25 02:50:00,67.4,64.4,29.99,West,259,0.0,0.0,90,0.02,,---,0.13,0.00,VWS V14.01,2013-07-25 00:50:00,
2013-07-25 03:00:00,67.4,64.7,29.99,West,259,0.0,0.0,91,0.02,,---,0.13,0.00,VWS V14.01,2013-07-25 01:00:00,
2013-07-25 03:10:00,67.4,64.7,29.99,West,259,0.0,0.0,91,0.02,,---,0.14,0.00,VWS V14.01,2013-07-25 01:10:00,
2013-07-25 03:20:00,67.2,64.5,29.99,West,259,0.0,0.0,91,0.02,,---,0.14,0.00,VWS V14.01,2013-07-25 01:20:00,
2013-07-25 03:25:00,67.2,64.5,29.99,West,259,0.0,0.0,91,0.02,,---,0.14,0.00,VWS V14.01,2013-07-25 01:25:00,
2013-07-25 03:30:00,67.2,64.5,29.99,West,259,0.0,0.0,91,0.02,,---,0.14,0.00,VWS V14.01,2013-07-25 01:30:00,
2013-07-25 03:35:00,67.1,64.7,29.99,West,259,0.0,0.0,92,0.02,,---,0.14,0.00,VWS V14.01,2013-07-25 01:35:00,
2013-07-25 03:45:00,67.1,64.7,29.98,West,259,0.0,0.0,92,0.01,,---,0.14,0.00,VWS V14.01,2013-07-25 01:45:00,
2013-07-25 03:55:00,67.1,64.7,29.98,West,259,0.0,0.0,92,0.01,,---,0.14,0.00,VWS V14.01,2013-07-25 01:55:00,
2013-07-25 04:00:00,67.2,64.8,29.98,West,259,0.0,0.0,92,0.01,,---,0.14,0.00,VWS V14.01,2013-07-25 02:00:00,
2013-07-25 04:10:00,67.1,64.7,29.98,West,259,0.0,0.0,92,0.00,,---,0.14,0.00,VWS V14.01,2013-07-25 02:10:00,
2013-07-25 04:15:00,67.2,64.8,29.99,West,259,0.0,0.0,92,0.00,,---,0.14,0.00,VWS V14.01,2013-07-25 02:15:00,
2013-07-25 04:20:00,67.2,64.8,29.99,West,259,0.0,0.0,92,0.00,,---,0.14,0.00,VWS V14.01,2013-07-25 02:20:00,
2013-07-25 04:25:00,67.3,64.9,29.99,West,259,0.0,0.0,92,0.00,,---,0.14,0.00,VWS V14.01,2013-07-25 02:25:00,
2013-07-25 04:35:00,67.4,65.0,29.99,West,259,0.0,0.0,92,0.00,,---,0.14,0.00,VWS V14.01,2013-07-25 02:35:00,
2013-07-25 04:40:00,67.5,64.8,29.99,West,259,0.0,0.0,91,0.00,,---,0.14,0.00,VWS V14.01,2013-07-25 02:40:00,
2013-07-25 04:45:00,67.6,64.9,29.98,West,259,0.0,1.0,91,0.00,,---,0.14,0.00,VWS V14.01,2013-07-25 02:45:00,
2013-07-25 04:50:00,67.7,65.3,29.98,West,259,0.0,0.0,92,0.00,,---,0.14,0.00,VWS V14.01,2013-07-25 02:50:00,
2013-07-25 04:55:00,67.7,65.3,29.98,West,259,0.0,0.0,92,0.00,,---,0.14,0.00,VWS V14.01,2013-07-25 02:55:00,
2013-07-25 05:00:00,67.7,65.3,29.99,West,259,0.0,0.0,92,0.00,,---,0.14,0.00,VWS V14.01,2013-07-25 03:00:00,
2013-07-25 05:05:00,67.7,65.3,29.99,West,259,0.0,0.0,92,0.00,,---,0.14,0.00,VWS V14.01,2013-07-25 03:05:00,
2013-07-25 05:15:00,67.7,65.3,29.99,West,259,0.0,0.0,92,0.00,,---,0.14,0.00,VWS V14.01,2013-07-25 03:15:00,
2013-07-25 05:20:00,67.6,65.2,29.99,West,259,0.0,0.0,92,0.00,,---,0.14,0.00,VWS V14.01,2013-07-25 03:20:00,
2013-07-25 05:25:00,67.6,65.2,29.99,West,259,0.0,0.0,92,0.00,,---,0.14,0.00,VWS V14.01,2013-07-25 03:25:00,
2013-07-25 05:35:00,67.5,65.1,29.99,West,259,0.0,0.0,92,0.00,,---,0.14,0.00,VWS V14.01,2013-07-25 03:35:00,
2013-07-25 05:45:00,67.5,65.1,29.99,West,259,0.0,0.0,92,0.00,,---,0.14,9.00,VWS V14.01,2013-07-25 03:45:00,
2013-07-25 06:00:00,67.4,65.0,29.99,West,259,0.0,0.0,92,0.00,,---,0.14,21.00,VWS V14.01,2013-07-25 04:00:00,
2013-07-25 06:05:00,67.2,64.8,29.99,West,259,0.0,0.0,92,0.00,,---,0.14,21.00,VWS V14.01,2013-07-25 04:05:00,
2013-07-25 06:10:00,67.2,64.8,29.99,West,259,0.0,0.0,92,0.00,,---,0.14,19.00,VWS V14.01,2013-07-25 04:10:00,
2013-07-25 06:15:00,67.3,64.9,29.99,West,259,0.0,0.0,92,0.00,,---,0.14,18.00,VWS V14.01,2013-07-25 04:15:00,
2013-07-25 06:20:00,67.3,64.9,29.99,West,259,0.0,0.0,92,0.00,,---,0.14,18.00,VWS V14.01,2013-07-25 04:20:00,
2013-07-25 06:25:00,67.3,64.9,29.99,West,259,0.0,1.0,92,0.00,,---,0.14,19.00,VWS V14.01,2013-07-25 04:25:00,
2013-07-25 06:30:00,67.3,64.9,29.99,West,259,0.0,0.0,92,0.00,,---,0.14,32.00,VWS V14.01,2013-07-25 04:30:00,
2013-07-25 06:35:00,67.2,64.8,29.99,West,259,0.0,0.0,92,0.00,,---,0.14,40.00,VWS V14.01,2013-07-25 04:35:00,
2013-07-25 06:45:00,67.3,64.9,29.99,West,259,1.0,1.0,92,0.00,,---,0.14,28.00,VWS V14.01,2013-07-25 04:45:00,
2013-07-25 06:50:00,67.3,64.9,29.99,West,259,0.0,0.0,92,0.00,,---,0.14,30.00,VWS V14.01,2013-07-25 04:50:00,
2013-07-25 06:55:00,67.3,64.6,29.99,West,263,0.0,5.0,91,0.00,,---,0.14,42.00,VWS V14.01,2013-07-25 04:55:00,
2013-07-25 07:00:00,67.3,64.3,29.99,NW,315,0.0,1.0,90,0.00,,---,0.14,54.00,VWS V14.01,2013-07-25 05:00:00,
2013-07-25 07:10:00,67.5,64.5,29.99,WNW,291,0.0,1.0,90,0.00,,---,0.14,58.00,VWS V14.01,2013-07-25 05:10:00,
2013-07-25 07:15:00,67.6,64.6,29.99,WNW,290,0.0,0.0,90,0.00,,---,0.14,70.00,VWS V14.01,2013-07-25 05:15:00,
2013-07-25 07:20:00,67.7,64.3,29.99,WNW,288,0.0,0.0,89,0.00,,---,0.14,83.00,VWS V14.01,2013-07-25 05:20:00,
2013-07-25 07:30:00,67.9,64.2,30.00,WNW,283,0.0,0.0,88,0.00,,---,0.14,98.00,VWS V14.01,2013-07-25 05:30:00,
2013-07-25 07:40:00,68.1,64.1,30.00,West,275,0.0,4.0,87,0.00,,---,0.14,207.00,VWS V14.01,2013-07-25 05:40:00,
2013-07-25 07:45:00,68.1,64.1,30.00,West,273,0.0,3.0,87,0.00,,---,0.14,144.00,VWS V14.01,2013-07-25 05:45:00,
2013-07-25 07:50:00,68.2,64.2,30.00,West,281,0.0,1.0,87,0.00,,---,0.14,141.00,VWS V14.01,2013-07-25 05:50:00,
2013-07-25 07:55:00,68.2,63.9,30.00,West,281,0.0,3.0,86,0.00,,---,0.14,134.00,VWS V14.01,2013-07-25 05:55:00,
2013-07-25 08:00:00,68.3,64.0,30.00,West,280,3.0,3.0,86,0.00,,---,0.14,151.00,VWS V14.01,2013-07-25 06:00:00,
2013-07-25 08:10:00,68.5,63.8,30.00,West,273,4.0,4.0,85,0.00,,---,0.14,156.00,VWS V14.01,2013-07-25 06:10:00,
2013-07-25 08:15:00,68.7,64.0,30.00,West,260,0.0,3.0,85,0.00,,---,0.14,171.00,VWS V14.01,2013-07-25 06:15:00,
2013-07-25 08:20:00,68.8,64.1,30.00,West,263,0.0,4.0,85,0.00,,---,0.14,153.00,VWS V14.01,2013-07-25 06:20:00,
2013-07-25 08:25:00,68.9,63.9,30.00,WNW,303,0.0,5.0,84,0.00,,---,0.14,156.00,VWS V14.01,2013-07-25 06:25:00,
2013-07-25 08:30:00,68.9,63.9,30.00,WNW,301,0.0,1.0,84,0.00,,---,0.14,185.00,VWS V14.01,2013-07-25 06:30:00,
2013-07-25 08:40:00,69.1,63.7,30.00,WNW,288,0.0,7.0,83,0.00,,---,0.14,167.00,VWS V14.01,2013-07-25 06:40:00,
2013-07-25 08:45:00,69.1,63.7,30.00,WSW,257,3.0,5.0,83,0.00,,---,0.14,155.00,VWS V14.01,2013-07-25 06:45:00,
2013-07-25 08:50:00,69.3,63.9,30.00,WNW,284,0.0,5.0,83,0.00,,---,0.14,151.00,VWS V14.01,2013-07-25 06:50:00,
2013-07-25 09:00:00,69.4,63.7,30.01,WSW,256,0.0,4.0,82,0.00,,---,0.14,123.00,VWS V14.01,2013-07-25 07:00:00,
2013-07-25 09:10:00,69.5,63.8,30.01,WSW,248,5.0,7.0,82,0.00,,---,0.14,121.00,VWS V14.01,2013-07-25 07:10:00,
2013-07-25 09:15:00,69.5,63.8,30.01,WSW,248,0.0,4.0,82,0.00,,---,0.14,125.00,VWS V14.01,2013-07-25 07:15:00,
2013-07-25 09:25:00,69.6,63.9,30.01,NW,310,5.0,7.0,82,0.00,,---,0.14,134.00,VWS V14.01,2013-07-25 07:25:00,
2013-07-25 09:30:00,69.6,63.5,30.01,NW,313,4.0,6.0,81,0.00,,---,0.14,128.00,VWS V14.01,2013-07-25 07:30:00,
2013-07-25 09:35:00,69.7,63.6,30.01,North,351,1.0,6.0,81,0.00,,---,0.14,141.00,VWS V14.01,2013-07-25 07:35:00,
2013-07-25 09:40:00,69.9,64.2,30.01,West,270,1.0,5.0,82,0.00,,---,0.14,90.00,VWS V14.01,2013-07-25 07:40:00,
2013-07-25 09:50:00,70.0,64.3,30.01,WNW,300,0.0,2.0,82,0.00,,---,0.14,107.00,VWS V14.01,2013-07-25 07:50:00,
2013-07-25 09:55:00,70.1,64.4,30.01,West,267,2.0,6.0,82,0.00,,---,0.14,86.00,VWS V14.01,2013-07-25 07:55:00,
2013-07-25 10:00:00,70.1,64.4,30.01,WNW,290,4.0,6.0,82,0.00,,---,0.14,65.00,VWS V14.01,2013-07-25 08:00:00,
2013-07-25 10:10:00,69.9,64.2,30.01,West,279,0.0,5.0,82,0.00,,---,0.14,84.00,VWS V14.01,2013-07-25 08:10:00,
2013-07-25 10:20:00,69.9,63.8,30.01,West,261,1.0,6.0,81,0.00,,---,0.14,81.00,VWS V14.01,2013-07-25 08:20:00,
2013-07-25 10:25:00,69.9,63.8,30.01,West,263,2.0,6.0,81,0.00,,---,0.14,76.00,VWS V14.01,2013-07-25 08:25:00,
2013-07-25 10:30:00,70.0,63.9,30.01,WSW,253,0.0,1.0,81,0.00,,---,0.14,95.00,VWS V14.01,2013-07-25 08:30:00,
2013-07-25 10:40:00,70.3,64.2,30.01,West,273,2.0,3.0,81,0.00,,---,0.14,188.00,VWS V14.01,2013-07-25 08:40:00,
2013-07-25 10:45:00,70.4,63.9,30.01,West,266,0.0,3.0,80,0.00,,---,0.14,223.00,VWS V14.01,2013-07-25 08:45:00,
2013-07-25 10:50:00,70.8,64.0,30.01,WSW,242,3.0,4.0,79,0.00,,---,0.14,267.00,VWS V14.01,2013-07-25 08:50:00,
2013-07-25 11:00:00,71.0,64.2,30.01,SSW,205,3.0,6.0,79,0.00,,---,0.14,450.00,VWS V14.01,2013-07-25 09:00:00,
2013-07-25 11:10:00,71.5,63.9,30.01,West,269,0.0,4.0,77,0.00,,---,0.14,923.00,VWS V14.01,2013-07-25 09:10:00,
2013-07-25 11:15:00,71.4,63.5,30.01,WSW,240,0.0,6.0,76,0.00,,---,0.14,640.00,VWS V14.01,2013-07-25 09:15:00,
2013-07-25 11:20:00,71.7,64.1,30.01,WSW,248,5.0,5.0,77,0.00,,---,0.14,877.00,VWS V14.01,2013-07-25 09:20:00,
2013-07-25 11:25:00,72.5,64.1,30.01,West,263,0.0,5.0,75,0.00,,---,0.14,823.00,VWS V14.01,2013-07-25 09:25:00,
2013-07-25 11:30:00,72.9,64.1,30.01,SSW,207,6.0,7.0,74,0.00,,---,0.14,823.00,VWS V14.01,2013-07-25 09:30:00,
2013-07-25 11:35:00,73.6,64.8,30.01,WSW,257,3.0,7.0,74,0.00,,---,0.14,946.00,VWS V14.01,2013-07-25 09:35:00,
2013-07-25 11:45:00,73.3,63.7,30.02,SW,232,2.0,6.0,72,0.00,,---,0.14,935.00,VWS V14.01,2013-07-25 09:45:00,
2013-07-25 11:50:00,73.9,64.3,30.02,NW,305,3.0,6.0,72,0.00,,---,0.14,362.00,VWS V14.01,2013-07-25 09:50:00,
2013-07-25 12:00:00,74.0,64.4,30.01,West,267,3.0,8.0,72,0.00,,---,0.14,244.00,VWS V14.01,2013-07-25 10:00:00,
2013-07-25 12:10:00,73.9,64.3,30.01,West,265,0.0,7.0,72,0.00,,---,0.14,891.00,VWS V14.01,2013-07-25 10:10:00,
2013-07-25 12:20:00,74.2,63.8,30.01,WSW,252,2.0,6.0,70,0.00,,---,0.14,478.00,VWS V14.01,2013-07-25 10:20:00,
2013-07-25 12:25:00,74.7,64.7,30.01,SW,225,0.0,2.0,71,0.00,,---,0.14,1021.00,VWS V14.01,2013-07-25 10:25:00,
2013-07-25 12:30:00,75.7,64.8,30.01,WSW,257,2.0,6.0,69,0.00,,---,0.14,251.00,VWS V14.01,2013-07-25 10:30:00,
2013-07-25 12:40:00,75.0,64.2,30.01,NW,313,0.0,4.0,69,0.00,,---,0.14,142.00,VWS V14.01,2013-07-25 10:40:00,
2013-07-25 12:45:00,75.2,64.3,30.01,West,273,3.0,6.0,69,0.00,,---,0.14,123.00,VWS V14.01,2013-07-25 10:45:00,
2013-07-25 12:50:00,75.0,64.6,30.01,WSW,254,0.0,0.0,70,0.00,,---,0.14,158.00,VWS V14.01,2013-07-25 10:50:00,
2013-07-25 12:55:00,74.7,64.3,30.01,North,360,3.0,6.0,70,0.00,,---,0.14,237.00,VWS V14.01,2013-07-25 10:55:00,
2013-07-25 13:00:00,74.8,64.8,30.01,NNW,340,1.0,4.0,71,0.00,,---,0.14,250.00,VWS V14.01,2013-07-25 11:00:00,
2013-07-25 13:10:00,74.6,64.2,30.01,NNW,329,0.0,1.0,70,0.00,,---,0.14,163.00,VWS V14.01,2013-07-25 11:10:00,
2013-07-25 13:20:00,76.1,65.6,30.01,North,9,0.0,4.0,70,0.00,,---,0.14,406.00,VWS V14.01,2013-07-25 11:20:00,
2013-07-25 13:30:00,76.5,66.0,30.01,NE,37,2.0,2.0,70,0.00,,---,0.14,267.00,VWS V14.01,2013-07-25 11:30:00,
2013-07-25 13:35:00,77.0,65.2,30.01,North,9,2.0,7.0,67,0.00,,---,0.14,828.00,VWS V14.01,2013-07-25 11:35:00,
2013-07-25 13:40:00,76.1,65.2,30.01,NW,326,0.0,1.0,69,0.00,,---,0.14,842.00,VWS V14.01,2013-07-25 11:40:00,
2013-07-25 13:50:00,77.7,64.1,30.01,WNW,284,5.0,8.0,63,0.00,,---,0.14,907.00,VWS V14.01,2013-07-25 11:50:00,
2013-07-25 13:55:00,76.7,64.1,30.01,North,9,3.0,7.0,65,0.00,,---,0.14,830.00,VWS V14.01,2013-07-25 11:55:00,
2013-07-25 14:05:00,78.8,64.2,30.01,East,98,0.0,4.0,61,0.00,,---,0.14,823.00,VWS V14.01,2013-07-25 12:05:00,
2013-07-25 14:10:00,79.3,64.2,30.01,NE,44,0.0,4.0,60,0.00,,---,0.14,828.00,VWS V14.01,2013-07-25 12:10:00,
2013-07-25 14:15:00,78.9,63.8,30.00,West,275,0.0,5.0,60,0.00,,---,0.14,851.00,VWS V14.01,2013-07-25 12:15:00,
2013-07-25 14:25:00,80.2,64.6,30.00,NNW,330,6.0,9.0,59,0.00,,---,0.14,766.00,VWS V14.01,2013-07-25 12:25:00,
2013-07-25 14:30:00,78.9,64.8,30.00,North,355,6.0,6.0,62,0.00,,---,0.14,838.00,VWS V14.01,2013-07-25 12:30:00,
2013-07-25 14:40:00,78.9,63.8,30.00,NNE,14,4.0,9.0,60,0.00,,---,0.14,234.00,VWS V14.01,2013-07-25 12:40:00,
2013-07-25 14:45:00,79.5,64.4,30.00,NNE,33,4.0,10.0,60,0.00,,---,0.14,779.00,VWS V14.01,2013-07-25 12:45:00,
2013-07-25 14:50:00,80.8,64.2,30.00,North,5,3.0,10.0,57,0.00,,---,0.14,782.00,VWS V14.01,2013-07-25 12:50:00,
2013-07-25 15:00:00,79.5,63.9,29.99,NW,317,4.0,4.0,59,0.00,,---,0.14,814.00,VWS V14.01,2013-07-25 13:00:00,
2013-07-25 15:10:00,80.6,65.0,29.99,West,262,3.0,7.0,59,0.00,,---,0.14,740.00,VWS V14.01,2013-07-25 13:10:00,
2013-07-25 15:20:00,79.8,63.7,29.99,West,270,0.0,4.0,58,0.00,,---,0.14,721.00,VWS V14.01,2013-07-25 13:20:00,
2013-07-25 15:25:00,80.6,64.0,29.99,North,355,5.0,8.0,57,0.00,,---,0.14,756.00,VWS V14.01,2013-07-25 13:25:00,
2013-07-25 15:35:00,79.1,63.6,29.99,NW,319,0.0,3.0,59,0.00,,---,0.14,719.00,VWS V14.01,2013-07-25 13:35:00,
2013-07-25 15:45:00,81.5,64.8,29.99,NE,44,6.0,9.0,57,0.00,,---,0.14,213.00,VWS V14.01,2013-07-25 13:45:00,
2013-07-25 15:50:00,81.7,65.5,29.99,ENE,67,0.0,2.0,58,0.00,,---,0.14,679.00,VWS V14.01,2013-07-25 13:50:00,
2013-07-25 16:00:00,81.4,64.2,29.99,NW,319,0.0,4.0,56,0.00,,---,0.14,643.00,VWS V14.01,2013-07-25 14:00:00,
2013-07-25 16:10:00,81.7,65.0,29.99,North,355,3.0,6.0,57,0.00,,---,0.14,619.00,VWS V14.01,2013-07-25 14:10:00,
2013-07-25 16:15:00,80.2,63.6,29.98,WSW,254,3.0,3.0,57,0.00,,---,0.14,582.00,VWS V14.01,2013-07-25 14:15:00,
2013-07-25 16:25:00,82.6,64.3,29.98,ENE,57,0.0,7.0,54,0.00,,---,0.14,582.00,VWS V14.01,2013-07-25 14:25:00,
2013-07-25 16:30:00,82.9,65.1,29.98,ENE,71,0.0,8.0,55,0.00,,---,0.14,559.00,VWS V14.01,2013-07-25 14:30:00,
2013-07-25 16:35:00,83.1,65.3,29.98,NE,51,6.0,7.0,55,0.00,,---,0.14,571.00,VWS V14.01,2013-07-25 14:35:00,
2013-07-25 16:45:00,82.9,64.0,29.98,NE,36,0.0,5.0,53,0.00,,---,0.14,559.00,VWS V14.01,2013-07-25 14:45:00,
2013-07-25 16:55:00,83.6,64.7,29.98,NE,48,0.0,5.0,53,0.00,,---,0.14,545.00,VWS V14.01,2013-07-25 14:55:00,
2013-07-25 17:00:00,82.8,64.5,29.98,NNE,16,1.0,7.0,54,0.00,,---,0.14,243.00,VWS V14.01,2013-07-25 15:00:00,
2013-07-25 17:05:00,82.6,64.8,29.98,NNE,33,1.0,3.0,55,0.00,,---,0.14,536.00,VWS V14.01,2013-07-25 15:05:00,
2013-07-25 17:10:00,83.1,64.2,29.98,NE,46,7.0,12.0,53,0.00,,---,0.14,512.00,VWS V14.01,2013-07-25 15:10:00,
2013-07-25 17:15:00,83.4,64.5,29.98,NE,40,0.0,4.0,53,0.00,,---,0.14,512.00,VWS V14.01,2013-07-25 15:15:00,
2013-07-25 17:20:00,84.6,64.5,29.98,NE,55,0.0,6.0,51,0.00,,---,0.14,501.00,VWS V14.01,2013-07-25 15:20:00,
2013-07-25 17:25:00,83.3,64.4,29.98,ENE,78,0.0,3.0,53,0.00,,---,0.14,487.00,VWS V14.01,2013-07-25 15:25:00,
2013-07-25 17:30:00,83.7,64.2,29.98,NNE,31,0.0,8.0,52,0.00,,---,0.14,410.00,VWS V14.01,2013-07-25 15:30:00,
2013-07-25 17:35:00,83.6,64.1,29.98,ENE,76,6.0,9.0,52,0.00,,---,0.14,401.00,VWS V14.01,2013-07-25 15:35:00,
2013-07-25 17:40:00,82.3,63.5,29.98,ENE,70,0.0,6.0,53,0.00,,---,0.14,385.00,VWS V14.01,2013-07-25 15:40:00,
2013-07-25 17:50:00,83.0,64.1,29.98,ENE,74,3.0,8.0,53,0.00,,---,0.14,373.00,VWS V14.01,2013-07-25 15:50:00,
2013-07-25 17:55:00,82.5,63.7,29.98,ENE,76,5.0,7.0,53,0.00,,---,0.14,359.00,VWS V14.01,2013-07-25 15:55:00,
2013-07-25 18:00:00,83.4,64.0,29.98,ENE,65,0.0,4.0,52,0.00,,---,0.14,346.00,VWS V14.01,2013-07-25 16:00:00,
2013-07-25 18:10:00,83.8,64.3,29.98,ENE,67,0.0,6.0,52,0.00,,---,0.14,309.00,VWS V14.01,2013-07-25 16:10:00,
2013-07-25 18:20:00,84.0,63.9,29.98,ENE,63,0.0,5.0,51,0.00,,---,0.14,287.00,VWS V14.01,2013-07-25 16:20:00,
2013-07-25 18:25:00,83.3,63.9,29.98,NE,51,7.0,10.0,52,0.00,,---,0.14,258.00,VWS V14.01,2013-07-25 16:25:00,
2013-07-25 18:30:00,82.9,63.5,29.98,NNE,33,0.0,5.0,52,0.00,,---,0.14,246.00,VWS V14.01,2013-07-25 16:30:00,
2013-07-25 18:35:00,82.9,63.5,29.98,ENE,65,6.0,7.0,52,0.00,,---,0.14,251.00,VWS V14.01,2013-07-25 16:35:00,
2013-07-25 18:40:00,83.0,63.6,29.98,NNE,29,0.0,4.0,52,0.00,,---,0.14,230.00,VWS V14.01,2013-07-25 16:40:00,
2013-07-25 18:45:00,83.2,64.3,29.97,NE,46,3.0,5.0,53,0.00,,---,0.14,214.00,VWS V14.01,2013-07-25 16:45:00,
2013-07-25 18:50:00,82.6,63.8,29.97,NE,45,6.0,7.0,53,0.00,,---,0.14,202.00,VWS V14.01,2013-07-25 16:50:00,
2013-07-25 19:00:00,82.1,63.8,29.98,NE,42,5.0,9.0,54,0.00,,---,0.14,178.00,VWS V14.01,2013-07-25 17:00:00,
2013-07-25 19:10:00,82.2,63.9,29.98,ENE,63,4.0,7.0,54,0.00,,---,0.14,156.00,VWS V14.01,2013-07-25 17:10:00,
2013-07-25 19:20:00,81.8,63.5,29.97,ENE,66,3.0,5.0,54,0.00,,---,0.14,132.00,VWS V14.01,2013-07-25 17:20:00,
2013-07-25 19:25:00,81.5,63.8,29.97,ENE,71,7.0,7.0,55,0.00,,---,0.14,121.00,VWS V14.01,2013-07-25 17:25:00,
2013-07-25 19:35:00,81.0,63.3,29.97,ENE,76,3.0,4.0,55,0.00,,---,0.14,104.00,VWS V14.01,2013-07-25 17:35:00,
2013-07-25 19:45:00,81.0,63.3,29.97,NE,36,2.0,2.0,55,0.00,,---,0.14,88.00,VWS V14.01,2013-07-25 17:45:00,
2013-07-25 19:50:00,80.9,63.2,29.97,ENE,62,1.0,4.0,55,0.00,,---,0.14,77.00,VWS V14.01,2013-07-25 17:50:00,
2013-07-25 19:55:00,80.8,63.1,29.97,ENE,70,2.0,2.0,55,0.00,,---,0.14,69.00,VWS V14.01,2013-07-25 17:55:00,
2013-07-25 20:00:00,80.8,63.1,29.98,ENE,69,0.0,0.0,55,0.00,,---,0.14,58.00,VWS V14.01,2013-07-25 18:00:00,
2013-07-25 20:10:00,80.7,63.0,29.98,ENE,66,0.0,4.0,55,0.00,,---,0.14,44.00,VWS V14.01,2013-07-25 18:10:00,
2013-07-25 20:20:00,80.3,63.2,29.98,ENE,67,1.0,5.0,56,0.00,,---,0.14,30.00,VWS V14.01,2013-07-25 18:20:00,
2013-07-25 20:25:00,80.2,63.1,29.98,ENE,75,0.0,2.0,56,0.00,,---,0.14,26.00,VWS V14.01,2013-07-25 18:25:00,
2013-07-25 20:35:00,79.9,63.3,29.98,ENE,65,0.0,3.0,57,0.00,,---,0.14,14.00,VWS V14.01,2013-07-25 18:35:00,
2013-07-25 20:40:00,79.7,63.1,29.98,ENE,65,0.0,1.0,57,0.00,,---,0.14,9.00,VWS V14.01,2013-07-25 18:40:00,
2013-07-25 20:45:00,79.5,63.0,29.99,ENE,65,0.0,3.0,57,0.00,,---,0.14,7.00,VWS V14.01,2013-07-25 18:45:00,
2013-07-25 20:55:00,79.1,63.1,29.99,ENE,65,0.0,2.0,58,0.00,,---,0.14,0.00,VWS V14.01,2013-07-25 18:55:00,
2013-07-25 21:00:00,78.9,62.9,29.99,ENE,65,0.0,1.0,58,0.00,,---,0.14,0.00,VWS V14.01,2013-07-25 19:00:00,
2013-07-25 21:05:00,78.8,62.8,29.99,ENE,59,3.0,4.0,58,0.00,,---,0.14,0.00,VWS V14.01,2013-07-25 19:05:00,
2013-07-25 21:10:00,78.7,63.2,29.99,NE,50,0.0,2.0,59,0.00,,---,0.14,0.00,VWS V14.01,2013-07-25 19:10:00,
2013-07-25 21:20:00,78.2,63.2,29.99,ENE,65,1.0,4.0,60,0.00,,---,0.14,0.00,VWS V14.01,2013-07-25 19:20:00,
2013-07-25 21:30:00,77.8,63.3,29.99,ENE,65,0.0,0.0,61,0.00,,---,0.14,0.00,VWS V14.01,2013-07-25 19:30:00,
2013-07-25 21:35:00,77.6,63.1,29.99,ENE,65,0.0,0.0,61,0.00,,---,0.14,0.00,VWS V14.01,2013-07-25 19:35:00,
2013-07-25 21:40:00,77.2,63.2,29.99,ENE,65,0.0,1.0,62,0.00,,---,0.14,0.00,VWS V14.01,2013-07-25 19:40:00,
2013-07-25 21:45:00,76.9,63.4,30.00,ENE,65,0.0,1.0,63,0.00,,---,0.14,0.00,VWS V14.01,2013-07-25 19:45:00,
2013-07-25 21:50:00,76.6,63.1,30.00,ENE,65,0.0,1.0,63,0.00,,---,0.14,0.00,VWS V14.01,2013-07-25 19:50:00,
2013-07-25 22:00:00,76.1,63.5,30.00,ENE,67,0.0,0.0,65,0.00,,---,0.14,0.00,VWS V14.01,2013-07-25 20:00:00,
2013-07-25 22:10:00,75.5,62.9,30.00,ENE,67,0.0,1.0,65,0.00,,---,0.14,0.00,VWS V14.01,2013-07-25 20:10:00,
2013-07-25 22:15:00,75.3,63.2,30.00,ENE,67,0.0,0.0,66,0.00,,---,0.14,0.00,VWS V14.01,2013-07-25 20:15:00,
2013-07-25 22:25:00,75.0,63.3,30.00,ENE,67,0.0,0.0,67,0.00,,---,0.14,0.00,VWS V14.01,2013-07-25 20:25:00,
2013-07-25 22:30:00,74.8,63.1,30.00,ENE,67,0.0,0.0,67,0.00,,---,0.14,0.00,VWS V14.01,2013-07-25 20:30:00,
2013-07-25 22:35:00,74.6,63.3,30.00,ENE,67,0.0,0.0,68,0.00,,---,0.14,0.00,VWS V14.01,2013-07-25 20:35:00,
2013-07-25 22:40:00,74.4,63.2,30.00,ENE,67,0.0,0.0,68,0.00,,---,0.14,0.00,VWS V14.01,2013-07-25 20:40:00,
2013-07-25 22:50:00,74.1,63.3,30.00,ENE,67,0.0,0.0,69,0.00,,---,0.14,0.00,VWS V14.01,2013-07-25 20:50:00,
2013-07-25 23:00:00,73.9,63.1,30.00,ENE,67,0.0,0.0,69,0.00,,---,0.14,0.00,VWS V14.01,2013-07-25 21:00:00,
2013-07-25 23:10:00,73.6,63.2,30.00,ENE,67,0.0,0.0,70,0.00,,---,0.14,0.00,VWS V14.01,2013-07-25 21:10:00,
2013-07-25 23:20:00,73.4,63.0,30.00,ENE,67,0.0,0.0,70,0.00,,---,0.14,0.00,VWS V14.01,2013-07-25 21:20:00,
2013-07-25 23:30:00,73.1,63.2,30.00,ENE,67,0.0,0.0,71,0.00,,---,0.14,0.00,VWS V14.01,2013-07-25 21:30:00,
2013-07-25 23:35:00,73.0,63.0,30.00,ENE,67,0.0,0.0,71,0.00,,---,0.14,0.00,VWS V14.01,2013-07-25 21:35:00,
2013-07-25 23:40:00,73.0,63.0,30.00,ENE,67,0.0,0.0,71,0.00,,---,0.14,0.00,VWS V14.01,2013-07-25 21:40:00,
2013-07-25 23:45:00,72.9,63.0,30.00,ENE,67,0.0,0.0,71,0.00,,---,0.14,0.00,VWS V14.01,2013-07-25 21:45:00,
2013-07-25 23:55:00,72.7,63.2,30.00,ENE,67,0.0,0.0,72,0.00,,---,0.14,0.00,VWS V14.01,2013-07-25 21:55:00,